Location: Big Meadows
(38.5260°N, 78.4400°W)
Time: 19:14:20
(UTC-04:00)

H-2A R/B - Visible Passes

Search period start: 24 May 2015 00:00
Search period end: 03 June 2015 00:00
Orbit: 734 x 838 km, 98.5° (Epoch: 24 May)

Date Brightness Start Highest point End Pass type
(mag) Time Alt. Az. Time Alt. Az. Time Alt. Az.
24 May 4.1 00:49:04 16° W 00:49:04 16° W 00:51:30 10° NW visible
24 May 3.2 22:37:23 24° E 22:38:14 25° ENE 22:42:19 10° NNE visible
25 May 3.2 00:18:02 32° W 00:18:02 32° W 00:22:02 10° NNW visible
25 May 4.0 22:06:21 11° E 22:07:55 13° ENE 22:10:22 10° NNE visible
25 May 2.0 23:46:59 68° W 23:46:59 68° W 23:51:49 10° NNW visible
26 May 2.0 23:15:57 58° E 23:16:14 59° ENE 23:21:10 10° N visible
27 May 4.2 00:56:35 14° W 00:56:35 14° W 00:58:35 10° WNW visible
27 May 3.0 22:44:54 28° E 22:45:46 30° ENE 22:50:08 10° N visible
28 May 3.4 00:25:32 28° W 00:25:32 28° W 00:29:28 10° NW visible
28 May 3.8 22:13:52 14° E 22:15:25 16° ENE 22:18:30 10° NNE visible
28 May 2.2 23:54:30 57° W 23:54:30 57° W 23:59:23 10° NNW visible
29 May 1.8 23:23:28 68° ESE 23:23:48 71° ENE 23:28:51 10° N visible
30 May 4.4 01:04:06 11° W 01:04:06 11° W 01:05:20 10° WNW visible
30 May 2.8 22:52:25 33° E 22:53:18 35° ENE 22:57:55 10° N visible
31 May 3.6 00:33:04 24° W 00:33:04 24° W 00:36:51 10° NW visible
31 May 3.7 22:21:23 16° E 22:22:56 19° ENE 22:26:29 10° NNE visible
01 Jun 2.5 00:02:01 48° W 00:02:01 48° W 00:06:56 10° NNW visible
01 Jun 1.8 23:30:59 76° SE 23:31:22 84° ENE 23:36:30 10° NNW visible
02 Jun 2.5 22:59:57 38° E 23:00:51 42° ENE 23:05:40 10° N visible
